Location: Vancouver
(49.2500°N, 123.1330°W)
Time: 22:49:31
(UTC-07:00)

Transit 2A Rocket - Visible Passes

Search period start: 29 March 2015 00:00
Search period end: 08 April 2015 00:00
Orbit: 585 x 922 km, 66.7° (Epoch: 29 March)

Date Brightness Start Highest point End Pass type
(mag) Time Alt. Az. Time Alt. Az. Time Alt. Az.
29 Mar 6.0 04:10:32 37° SSE 04:12:22 49° ESE 04:18:16 10° NE visible
29 Mar 5.9 05:50:29 15° WSW 05:55:14 44° NW 06:01:07 10° NNE visible
30 Mar 6.5 03:29:47 31° SE 03:30:31 32° ESE 03:35:55 10° NE visible
30 Mar 5.5 05:09:43 27° WSW 05:12:58 61° NW 05:19:06 10° NNE visible
31 Mar 7.1 02:48:58 21° ESE 02:48:58 21° ESE 02:53:15 10° ENE visible
31 Mar 5.3 04:28:55 46° SW 04:30:49 86° NW 04:37:03 10° NE visible
31 Mar 6.6 06:09:16 10° W 06:14:26 27° NNW 06:19:36 10° NNE visible
01 Apr 7.7 02:08:07 12° E 02:08:07 12° E 02:09:49 10° ENE visible
01 Apr 5.4 03:48:03 60° SSE 03:48:48 66° ESE 03:54:55 10° NE visible
01 Apr 6.3 05:27:59 17° W 05:31:59 35° NW 05:37:36 10° NNE visible
02 Apr 6.1 03:07:08 43° ESE 03:07:08 43° ESE 03:12:41 10° NE visible
02 Apr 5.8 04:47:04 31° W 04:49:38 48° NW 04:55:35 10° NNE visible
03 Apr 6.8 02:26:12 27° E 02:26:12 27° E 02:30:15 10° NE visible
03 Apr 5.4 04:06:07 53° WSW 04:07:23 67° NW 04:13:34 10° NNE visible
03 Apr 6.9 05:46:26 10° W 05:51:16 23° NNW 05:56:05 10° NNE visible
04 Apr 7.4 01:45:12 16° E 01:45:12 16° E 01:47:26 10° ENE visible
04 Apr 5.2 03:25:07 84° SSE 03:25:16 86° SE 03:31:29 10° NE visible
04 Apr 6.6 05:05:03 17° W 05:08:45 29° NNW 05:14:03 10° NNE visible
05 Apr 5.8 02:44:06 54° E 02:44:06 54° E 02:49:20 10° NE visible
05 Apr 6.2 04:24:01 29° W 04:26:19 38° NW 04:32:03 10° NNE visible
05 Apr 7.3 06:06:46 10° WNW 06:10:48 17° NNW 06:14:45 10° NNE visible
06 Apr 6.6 02:03:01 33° E 02:03:01 33° E 02:07:02 10° NE visible
06 Apr 5.7 03:42:57 47° W 03:44:00 52° NW 03:50:02 10° NNE visible
06 Apr 7.2 05:23:38 10° WNW 05:28:08 20° NNW 05:32:34 10° NNE visible
07 Apr 7.2 01:21:56 20° ENE 01:21:56 20° ENE 01:24:31 10° NE visible
07 Apr 5.3 03:01:51 74° NW 03:01:51 74° NW 03:07:59 10° NE visible
07 Apr 6.9 04:41:46 15° WNW 04:45:33 25° NNW 04:50:30 10° NNE visible
